カタログに戻る

STARLINK-3867

運用中通信VLEO
NORAD 52587·PAYLOAD·🇺🇸 United States

打ち上げ May 13, 2022 から Vandenberg Space Force Base

Loading…

次のパス (今後24時間)

TLE

最新Source: CelesTrak SupGP

元期: Sep 14, 2026, 20:46 UTC

1 52587C 22051BD  26257.86576389 -.00033151  00000+0 -10662-2 0  2579
2 52587  53.1582 336.0866 0001170  81.2019 334.3658 15.31712797    11

AllMySatでSTARLINK-3867をリアルタイム追跡

Download on the App Store